User: anonymous   Login
Location: *
(34.8620°S, 39.3380°E)
Time: 03:23:03
(UTC+00:00)
Language:

Cosmos 1459 Rocket - Orbit

View from above orbital plane
View from above orbital plane
View from above satellite
View from above satellite

Ground track
Ground track

The orbit data is extracted from the following two-line orbital elements,

1 14059U 83042B   21293.54819067  .00000116  00000-0  98258-4 0  9997
2 14059  82.9706 324.3362 0043793 129.8931 230.6091 13.78745209934075
Epoch (UTC): 20 October 2021 13:09:23
Eccentricity: 0.0043793
inclination: 82.9706°
perigee height: 936 km
apogee height: 1000 km
right ascension of ascending node: 324.3362°
argument of perigee: 129.8931°
revolutions per day: 13.78745209
mean anomaly at epoch: 230.6091°
orbit number at epoch: 93407

The dashed part of the orbit path shows where the satellite is in the earth's shadow,  

DLR